Weather History for Chariton, IA

Change the Weather History Date:

Wednesday, January 29, 2014

  Actual Average Record
Temperature  
Mean Temperature 22 °F -  
Max Temperature 39 °F 34 °F 64 °F (2013)
Min Temperature 5 °F 12 °F -22 °F (1966)
Degree Days  
Heating Degree Days 43    
Moisture  
Dew Point 3 °F    
Average Humidity 46    
Maximum Humidity 78    
Minimum Humidity 28    
Precipitation  
Precipitation 0.00 in - - ()
Sea Level Pressure  
Sea Level Pressure 30.03 in    
Wind  
Wind Speed 11 mph (SSW)    
Max Wind Speed 26 mph    
Max Gust Speed 34 mph    
Visibility 10 miles    
Events      
Averages and records for this station are not official NWS values.
T = Trace of Precipitation, MM = Missing Value Source: NWS Daily Summary

Daily Weather History Graph

Daily Weather History Graph

Search for Another Location

Airport:

Trip Planner

Search our weather history database for the weather conditions in past years. The results will help you decide how hot, cold, wet, or windy it might be!

Date:

Astronomy

Jan. 29, 2014 Rise Set
Actual Time 7:26 AM CST 5:26 PM CST
Civil Twilight 6:57 AM CST 5:56 PM CST
Nautical Twilight 6:24 AM CST 6:29 PM CST
Astronomical Twilight 5:52 AM CST 7:01 PM CST
Moon 6:04 AM CST (1/29) 4:27 PM CST (1/29)
Length of Visible Light 10h 58m
Length of Day
9h 59m
Waning Crescent, 2% of the Moon is Illuminated
Jan 29
Waning Crescent
Jan 30
New
Feb 6
First Quarter
Feb 14
Full
Feb 22
Last Quarter

Hourly Weather History & Observations

Time (CST) Temp. Windchill Dew Point Humidity Pressure Visibility Wind Dir Wind Speed Gust Speed Precip Events Conditions
12:15 AM 6.8 °F -2.0 °F -7.6 °F 52% 30.24 in 10.0 mi SW 4.6 mph - N/A   Clear
12:35 AM 6.8 °F -3.5 °F -7.6 °F 52% 30.23 in 10.0 mi SW 5.8 mph - N/A   Clear
12:55 AM 6.8 °F -2.0 °F -7.6 °F 52% 30.23 in 10.0 mi SW 4.6 mph - N/A   Clear
1:15 AM 6.8 °F -3.5 °F -7.6 °F 52% 30.22 in 10.0 mi SW 5.8 mph - N/A   Clear
1:35 AM 5.0 °F -6.9 °F -7.6 °F 56% 30.22 in 10.0 mi SW 6.9 mph - N/A   Clear
1:55 AM 5.0 °F -5.6 °F -7.6 °F 56% 30.22 in 10.0 mi SW 5.8 mph - N/A   Clear
2:15 AM 5.0 °F -5.6 °F -7.6 °F 56% 30.22 in 10.0 mi SW 5.8 mph - N/A   Partly Cloudy
2:35 AM 5.0 °F -6.9 °F -7.6 °F 56% 30.22 in 10.0 mi SW 6.9 mph - N/A   Scattered Clouds
2:55 AM 5.0 °F -6.9 °F -7.6 °F 56% 30.21 in 10.0 mi SW 6.9 mph - N/A   Partly Cloudy
3:15 AM 5.0 °F -6.9 °F -7.6 °F 56% 30.20 in 10.0 mi SW 6.9 mph - N/A   Clear
3:35 AM 6.8 °F -4.8 °F -7.6 °F 52% 30.20 in 10.0 mi SW 6.9 mph - N/A   Clear
3:55 AM 6.8 °F -4.8 °F -5.8 °F 56% 30.19 in 10.0 mi SW 6.9 mph - N/A   Clear
4:15 AM 6.8 °F -4.8 °F -5.8 °F 56% 30.18 in 10.0 mi SW 6.9 mph - N/A   Clear
4:35 AM 8.6 °F -1.3 °F -5.8 °F 52% 30.18 in 10.0 mi SW 5.8 mph - N/A   Clear
4:55 AM 6.8 °F -4.8 °F -5.8 °F 56% 30.19 in 10.0 mi SW 6.9 mph - N/A   Clear
5:15 AM 6.8 °F -4.8 °F -5.8 °F 56% 30.18 in 10.0 mi SW 6.9 mph - N/A   Clear
5:35 AM 6.8 °F -3.5 °F -5.8 °F 56% 30.18 in 10.0 mi SW 5.8 mph - N/A   Clear
5:55 AM 5.0 °F -5.6 °F -5.8 °F 61% 30.18 in 10.0 mi SSW 5.8 mph - N/A   Clear
6:15 AM 5.0 °F -5.6 °F -5.8 °F 61% 30.17 in 10.0 mi SSW 5.8 mph - N/A   Clear
6:35 AM 5.0 °F -9.1 °F -4.0 °F 66% 30.16 in 10.0 mi SSW 9.2 mph - N/A   Clear
6:55 AM 5.0 °F -8.1 °F -4.0 °F 66% 30.16 in 10.0 mi SSW 8.1 mph - N/A   Clear
7:15 AM 6.8 °F -5.9 °F -2.2 °F 67% 30.16 in 10.0 mi SSW 8.1 mph - N/A   Clear
7:35 AM 5.0 °F -6.9 °F -0.4 °F 78% 30.16 in 10.0 mi SSW 6.9 mph - N/A   Clear
7:55 AM 6.8 °F -4.8 °F -0.4 °F 72% 30.16 in 9.0 mi SW 6.9 mph - N/A   Clear
8:15 AM 10.4 °F 0.8 °F 1.4 °F 67% 30.16 in 10.0 mi SW 5.8 mph - N/A   Clear
8:35 AM 12.2 °F -2.5 °F 1.4 °F 62% 30.15 in 10.0 mi SW 12.7 mph - N/A   Clear
8:55 AM 14.0 °F 2.0 °F 3.2 °F 62% 30.15 in 10.0 mi SW 9.2 mph - N/A   Clear
9:15 AM 15.8 °F 5.1 °F 3.2 °F 58% 30.14 in 10.0 mi SW 8.1 mph - N/A   Clear
9:35 AM 17.6 °F 5.0 °F 3.2 °F 53% 30.13 in 10.0 mi SW 11.5 mph 18.4 mph N/A   Clear
9:55 AM 19.4 °F 6.0 °F 3.2 °F 49% 30.13 in 10.0 mi SW 13.8 mph - N/A   Clear
10:15 AM 21.2 °F 7.3 °F 5.0 °F 50% 30.12 in 10.0 mi SSW 16.1 mph - N/A   Clear
10:35 AM 23.0 °F 10.1 °F 6.8 °F 50% 30.12 in 10.0 mi SSW 15.0 mph - N/A   Clear
10:55 AM 24.8 °F 13.4 °F 5.0 °F 43% 30.12 in 10.0 mi SW 12.7 mph 18.4 mph N/A   Clear
11:15 AM 26.6 °F 13.8 °F 5.0 °F 40% 30.11 in 10.0 mi SSW 17.3 mph - N/A   Clear
11:35 AM 28.4 °F 16.2 °F 5.0 °F 37% 30.10 in 10.0 mi SSW 17.3 mph - N/A   Clear
11:55 AM 30.2 °F 18.1 °F 5.0 °F 34% 30.09 in 10.0 mi SW 18.4 mph 29.9 mph N/A   Clear
12:15 PM 32.0 °F 21.2 °F 5.0 °F 32% 30.08 in 10.0 mi SW 16.1 mph 23.0 mph N/A   Clear
12:35 PM 32.0 °F 20.5 °F 5.0 °F 32% 30.05 in 10.0 mi SSW 18.4 mph 24.2 mph N/A   Clear
12:55 PM 33.8 °F 22.5 °F 5.0 °F 30% 30.03 in 10.0 mi SSW 19.6 mph - N/A   Clear
1:15 PM 33.8 °F 22.2 °F 5.0 °F 30% 30.02 in 10.0 mi SSW 20.7 mph 28.8 mph N/A   Clear
1:35 PM 35.6 °F 24.8 °F 5.0 °F 28% 30.01 in 10.0 mi SW 19.6 mph 28.8 mph N/A   Clear
1:55 PM 35.6 °F 25.5 °F 5.0 °F 28% 30.00 in 10.0 mi SSW 17.3 mph 27.6 mph N/A   Clear
2:15 PM 37.4 °F 27.8 °F 6.8 °F 28% 29.99 in 10.0 mi SSW 17.3 mph 25.3 mph N/A   Clear
2:35 PM 37.4 °F 26.9 °F 6.8 °F 28% 29.97 in 10.0 mi SSW 20.7 mph 27.6 mph N/A   Clear
2:55 PM 37.4 °F 26.9 °F 8.6 °F 30% 29.96 in 10.0 mi SSW 20.7 mph 27.6 mph N/A   Clear
3:15 PM 37.4 °F 27.2 °F 8.6 °F 30% 29.95 in 9.0 mi SSW 19.6 mph 28.8 mph N/A   Clear
3:35 PM 37.4 °F 26.9 °F 8.6 °F 30% 29.94 in 10.0 mi SSW 20.7 mph 27.6 mph N/A   Clear
3:55 PM 39.2 °F 28.7 °F 8.6 °F 28% 29.92 in 10.0 mi South 23.0 mph 31.1 mph N/A   Clear
4:15 PM 37.4 °F 26.4 °F 10.4 °F 33% 29.92 in 10.0 mi SSW 23.0 mph - N/A   Clear
4:35 PM 37.4 °F 27.8 °F 10.4 °F 33% 29.92 in 10.0 mi South 17.3 mph 26.5 mph N/A   Clear
4:55 PM 35.6 °F 24.8 °F 10.4 °F 35% 29.90 in 10.0 mi South 19.6 mph 28.8 mph N/A   Clear
5:15 PM 35.6 °F 24.8 °F 10.4 °F 35% 29.89 in 10.0 mi South 19.6 mph - N/A   Clear
5:35 PM 33.8 °F 23.2 °F 10.4 °F 38% 29.89 in 10.0 mi South 17.3 mph 24.2 mph N/A   Clear
5:55 PM 33.8 °F 23.9 °F 10.4 °F 38% 29.89 in 10.0 mi South 15.0 mph - N/A   Clear
6:15 PM 32.0 °F 21.6 °F 10.4 °F 41% 29.88 in 10.0 mi South 15.0 mph - N/A   Partly Cloudy
6:35 PM 32.0 °F 20.8 °F 12.2 °F 44% 29.88 in 10.0 mi South 17.3 mph 25.3 mph N/A   Clear
6:55 PM 32.0 °F 19.8 °F 12.2 °F 44% 29.87 in 10.0 mi South 20.7 mph 26.5 mph N/A   Clear
7:15 PM 32.0 °F 19.5 °F 12.2 °F 44% 29.85 in 10.0 mi South 21.9 mph 28.8 mph N/A   Clear
7:35 PM 32.0 °F 18.4 °F 12.2 °F 44% 29.84 in 10.0 mi South 26.5 mph - N/A   Clear
7:55 PM 32.0 °F 19.2 °F 10.4 °F 41% 29.83 in 10.0 mi South 23.0 mph 28.8 mph N/A   Clear
8:15 PM 32.0 °F 19.2 °F 10.4 °F 41% 29.83 in 10.0 mi South 23.0 mph 32.2 mph N/A   Clear
8:35 PM 32.0 °F 18.4 °F 10.4 °F 41% 29.82 in 10.0 mi South 26.5 mph 34.5 mph N/A   Clear
8:55 PM 32.0 °F 18.9 °F 10.4 °F 41% 29.81 in 10.0 mi South 24.2 mph 31.1 mph N/A   Clear
9:15 PM 32.0 °F 18.9 °F 10.4 °F 41% 29.80 in 10.0 mi South 24.2 mph 32.2 mph N/A   Clear
9:35 PM 32.0 °F 19.2 °F 10.4 °F 41% 29.80 in 10.0 mi South 23.0 mph 33.4 mph N/A   Partly Cloudy
9:55 PM 32.0 °F 19.8 °F 10.4 °F 41% 29.79 in 10.0 mi South 20.7 mph 28.8 mph N/A   Partly Cloudy
10:15 PM 32.0 °F 19.5 °F 10.4 °F 41% 29.79 in 10.0 mi South 21.9 mph 33.4 mph N/A   Clear
10:35 PM 32.0 °F 19.2 °F 10.4 °F 41% 29.78 in 10.0 mi SSW 23.0 mph 29.9 mph N/A   Clear
10:55 PM 32.0 °F 18.9 °F 10.4 °F 41% 29.77 in 10.0 mi SSW 24.2 mph 33.4 mph N/A   Clear
11:15 PM 32.0 °F 19.2 °F 12.2 °F 44% 29.77 in 10.0 mi SSW 23.0 mph 32.2 mph N/A   Clear
11:35 PM 32.0 °F 18.9 °F 12.2 °F 44% 29.76 in 10.0 mi SSW 24.2 mph 32.2 mph N/A   Clear
11:55 PM 32.0 °F 18.9 °F 12.2 °F 44% 29.75 in 10.0 mi SSW 24.2 mph 34.5 mph N/A   Mostly Cloudy